This is the latest recevied weather packets stored in our database for station/object KE0YJJ-14. If no packets are shown the sender has not sent any weather packets the latest 10 day(s).
| Time | Temp. | Humidity | Pressure | Rain* | Wind** | Luminosity | Snow |
|---|---|---|---|---|---|---|---|
| 1777935337 | 14.44° C | 38% | - | 0 mm | - | - | - |
| 1777935034 | 14.44° C | 39% | - | 0 mm | - | - | - |
| 1777934731 | 14.44° C | 38% | - | 0 mm | - | - | - |
| 1777934428 | 14.44° C | 39% | - | 0 mm | - | - | - |
| 1777934125 | 14.44° C | 38% | - | 0 mm | - | - | - |
| 1777933821 | 15.56° C | 38% | - | 0 mm | - | - | - |
| 1777933517 | 15.56° C | 37% | - | 0 mm | - | - | - |
| 1777933215 | 15° C | 37% | - | 0 mm | - | - | - |
| 1777932912 | 15° C | 38% | - | 0 mm | - | - | - |
| 1777932609 | 15° C | 37% | - | 0 mm | - | - | - |
| 1777932305 | 15° C | 37% | - | 0 mm | - | - | - |
| 1777932002 | 15.56° C | 37% | - | 0 mm | - | - | - |
| 1777931699 | 16.11° C | 36% | - | 0 mm | - | - | - |
| 1777931396 | 15.56° C | 36% | - | 0 mm | - | - | - |
| 1777931092 | 15.56° C | 36% | - | 0 mm | - | - | - |
| 1777930789 | 15.56° C | 36% | - | 0 mm | - | - | - |
| 1777930484 | 15.56° C | 36% | - | 0 mm | - | - | - |
| 1777930183 | 16.11° C | 33% | - | 0 mm | - | - | - |
| 1777929878 | 16.67° C | 36% | - | 0 mm | - | - | - |
| 1777929576 | 16.67° C | 35% | - | 0 mm | - | - | - |
| 1777929272 | 16.67° C | 36% | - | 0 mm | - | - | - |
| 1777928970 | 15.56° C | 38% | - | 0 mm | - | - | - |
| 1777928666 | 16.11° C | 37% | - | 0 mm | - | - | - |
| 1777928364 | 15.56° C | 37% | - | 0 mm | - | - | - |
| 1777928061 | 15° C | 38% | - | 0 mm | - | - | - |
* Rain latest hour (hover to see other rain measurements)
** Current wind speed in m/s (hover to see current wind gust speed)